Weather History for MRLB - October, 2012

Change the Weather History Date:

Monday, October 8, 2012

  Actual Average Record
Temperature  
Mean Temperature 79 °F -  
Max Temperature 86 °F 84 °F 92 °F (2013)
Min Temperature 72 °F 73 °F 72 °F (2012)
Cooling Degree Days 14    
Growing Degree Days 29 (Base 50)    
Moisture  
Dew Point 73 °F    
Average Humidity 85    
Maximum Humidity 94    
Minimum Humidity 62    
Precipitation  
Precipitation 1.34 in - - ()
Sea Level Pressure  
Sea Level Pressure 29.89 in    
Wind  
Wind Speed 5 mph ()    
Max Wind Speed 14 mph    
Max Gust Speed -    
Visibility 6.5 miles    
Events Fog , Rain , Thunderstorm    
Averages and records for this station are not official NWS values.
T = Trace of Precipitation, MM = Missing Value Source: Averaged Metar Reports

Daily Weather History Graph

Daily Weather History Graph

Search for Another Location

Airport or City:

Trip Planner

Search our weather history database for the weather conditions in past years. The results will help you decide how hot, cold, wet, or windy it might be!

Date:

Astronomy

Oct. 08, 2012 Rise Set
Actual Time 5:30 AM CST 5:28 PM CST
Civil Twilight 5:09 AM CST 5:49 PM CST
Nautical Twilight 4:45 AM CST 6:13 PM CST
Astronomical Twilight 4:20 AM CST 6:38 PM CST
Moon No Moon Rise 12:11 PM CST (10/8)
Length of Visible Light 12h 39m
Length of Day
11h 57m
Last Quarter, 46% of the Moon is Illuminated
Oct 8
Last Quarter
Oct 15
New
Oct 21
First Quarter
Oct 29
Full
Nov 6
Last Quarter

Hourly Weather History & Observations

Time (CST) Temp. Heat Index Dew Point Humidity Pressure Visibility Wind Dir Wind Speed Gust Speed Precip Events Conditions
6:00 AM 73 °F - 72 °F 94% 29.88 in 12 mi NE 5.8 mph - -   Overcast
6:00 AM 73.4 °F - 71.6 °F 94% 29.87 in 6.2 mi NE 5.8 mph - N/A   Overcast
7:00 AM 77.0 °F - 73.4 °F 89% 29.88 in 6.2 mi ENE 3.5 mph - N/A   Overcast
8:00 AM 80.6 °F 85.4 °F 73.4 °F 79% 29.91 in 6.2 mi South 4.6 mph - N/A   Mostly Cloudy
9:00 AM 83 °F - 74 °F 66% 29.92 in 12 mi SSE 6.9 mph - -   Overcast
9:00 AM 82.4 °F 88.2 °F 73.4 °F 74% 29.91 in 6.2 mi SSE 6.9 mph - N/A   Mostly Cloudy
10:00 AM 82.4 °F 88.2 °F 73.4 °F 74% 29.91 in 6.2 mi SSE 5.8 mph - N/A   Mostly Cloudy
11:00 AM 86.0 °F 91.8 °F 71.6 °F 62% 29.89 in 6.2 mi East 6.9 mph - N/A   Mostly Cloudy
12:00 PM 82 °F - 74 °F 72% 29.90 in 12 mi SSE 8.1 mph - - Rain Light Rain
12:00 PM 82.4 °F 89.5 °F 75.2 °F 79% 29.89 in 6.2 mi SSE 8.1 mph - N/A Rain Light Rain
1:00 PM 82.4 °F 89.5 °F 75.2 °F 79% 29.86 in 6.2 mi South 8.1 mph - N/A Rain Rain Showers
1:15 PM 82.4 °F 89.5 °F 75.2 °F 79% 29.86 in 6.2 mi ESE 3.5 mph - N/A Rain , Thunderstorm Rain
1:28 PM 78.8 °F - 75.2 °F 89% 29.87 in 0.9 mi WNW 8.1 mph - N/A Rain , Thunderstorm Light Thunderstorms and Rain
1:37 PM 75.2 °F - 73.4 °F 94% 29.88 in 0.5 mi ESE 6.9 mph - N/A Rain Heavy Rain
2:00 PM 73.4 °F - 71.6 °F 94% 29.87 in 6.2 mi East 13.8 mph - N/A Rain , Thunderstorm Light Thunderstorms and Rain
3:00 PM 73.4 °F - 71.6 °F 94% 29.87 in 6.2 mi SSE 3.5 mph - N/A Rain Light Rain
4:00 PM 75.2 °F - 73.4 °F 94% 29.87 in 6.2 mi Calm Calm - N/A   Drizzle
5:00 PM 75.2 °F - 73.4 °F 94% 29.88 in 5.0 mi Calm Calm - N/A Fog Fog
6:00 PM 75 °F - 74 °F 94% 29.90 in 9 mi Calm Calm - -   Overcast
6:00 PM 75.2 °F - 73.4 °F 94% 29.89 in 6.2 mi Calm Calm - N/A   Mostly Cloudy
7:00 PM 75.2 °F - 73.4 °F 94% 29.92 in 5.0 mi West 4.6 mph - N/A Fog Fog
8:00 PM 75.2 °F - 73.4 °F 94% 29.95 in 5.6 mi Calm Calm - N/A   Drizzle